{"data":{"norad_id":69929,"epoch":"2026-09-19T23:02:53.814048Z","epoch_age_seconds":64396,"freshness":"FRESH","line1":"1 69929U 26156BN  26262.96034507  .00001928  00000+0  19202-3 0  9993","line2":"2 69929  97.7461 162.2599 0007186 273.3439  86.6958 14.92746341 11137","mean_motion":14.92746341,"eccentricity":0.0007186,"inclination_deg":97.7461,"raan_deg":162.2599,"arg_perigee_deg":273.3439,"mean_anomaly_deg":86.6958,"bstar":0.00019202,"rev_number":1113,"period_min":96.466490015667,"perigee_km":584.36984121131,"apogee_km":594.38355189599,"semimajor_km":6967.5136965536,"source":"CELESTRAK","updated_at":"2026-09-20T09:00:25.206485Z"}}